OPS 4682 DEB, 38396

Orbit data source: Space-Track

OPS 4682 DEB, 38396 is space debris in LEO originally from a launch on Sat, 03 Apr 1965 UTC launched from the Air Force Western Test Range (AFWTR). Debris objects in space refer to the collection of defunct objects orbiting the Earth. Examples of debris include non-operational satellites, rocket bodies, and fragments generated from explosions, collisions, or faulty payload assembly.

Loading next visibility...
Identifier
38396, 1965-027CZ
Orbit
LEO
Country
Flag of USUS
Related business
Manufacturer
Unknown
Mission
Spacecraft
Bus & Motor
Unknown
Mass
Unknown
Launch date (UTC)
1965-04-03 (61 years ago)
Launch vehicle
Unknown
Launch site
Air Force Western Test Range (AFWTR)
Object type
Payload
Rocket body
Debris
Shape & HBR
Unknown shape, 0.1 m
Radar Cross Section
Medium (>0.1 m² and <1 m²)

Expand to show TLE details & history
Last TLE update: 2 days ago

TLE from 2 days ago
0 OPS 4682 DEB
1 38396U 65027CZ  26206.90823806  .00000806  00000-0  27266-2 0  9990
2 38396  90.2510  12.2235 0036955 353.0886   6.9721 12.97929602668220
Epoch: 2026-07-25T21:47Z
TLE epoch observation values (Epoch: 2026-07-25T21:47:51.768Z)
Latitude
0.00002°
Longitude
101.64403°
Altitude
1,245.031 km
Speed
7.246 km/s
True Right ascension
00h 48m 53s
True Declination
0° 00' 00"
Sunlit
Object was in daylight at epoch
Visualization orbit readout
Latitude
Unknown
Longitude
Unknown
Altitude
Unknown
Speed
Unknown
Apparent Right ascension
Unknown
Apparent Declination
Unknown
Sunlit
N/A
Visualization observer readout
Local Sidereal Time
00:02:00
Azimuth
Unknown
Elevation
Unknown
Doppler factor
Unknown
Orbital elements
Apogee altitude
1,295.593 km
Perigee altitude
1,239.086 km
Semi-major axis
7,645.476 km
Eccentricity
0.0037
Inclination
90.251°
RAAN
12.2235°
Arg. of periapsis
353.0886°
True anomaly
7.02374°
Mean anomaly
6.9721°
Eccentric anomaly
6.9979°
Mean motion
3.24666 °/min
Orbital period
110.88 mins
BSTAR
0.0027266
Loading maneuver chart data...
Computing Atmospheric mass density...
Loading historical data...
Loading historical data...
Loading historical data...
Loading historical data...
Loading historical data...
Loading historical data...
Loading historical data...

Documentation

Showing up to 5 results
|